Home   Weather   Szczecin   Past weeks

Flag for Poland Past Weather in Szczecin, Poland — Yesterday and Last 2 Weeks

Now
32 °F

Mostly cloudy.


Feels Like: 23 °F
Forecast: 23 / 32 °F
Wind: 12 mph from Southeast

Location: Szczecin Airport

Current Time: Jan 22, 2017 at 5:34:53 pm

Latest Report: Jan 22, 2017 at 5:00 pm


Visibility: 5 mi

Pressure: 30.36 "Hg

Humidity: 93%

Dew Point: 30 °F

Location of SzczecinLocation

Past Weather in Szczecin — Graph

°F

Szczecin Temperature Yesterday

Maximum temperature yesterday: 36 °F (at 12:00 am)
Minimum temperature yesterday: 34 °F (at 8:00 am)
Average temperature yesterday: 35 °F

High & Low Weather Summary for the Past Weeks

 TemperatureHumidityPressure
High37 °F (Jan 12, 1:30 am)100% (Jan 9, 12:30 am)30.72 "Hg (Jan 9, 12:30 am)
Low16 °F (Jan 11, 4:00 am)68% (Jan 11, 12:00 pm)29.06 "Hg (Jan 13, 9:30 am)
Average29 °F92%30.12 "Hg
* Reported Jan 7 4:00 pm — Jan 22 4:30 pm, Szczecin, Weather by CustomWeather, © 2017

Note: Actual official high and low records may vary slightly from our data, if they occured in-between our weather recording intervals... More about our weather records

Advertising

Szczecin Weather History for the Previous 24 Hours

Scroll right to see more
 ConditionsComfort  
Time TempWeatherWind HumidityBarometerVisibility
4:30 pm
Sun, Jan 22
32 °FLow clouds.12 mph93%30.36 "Hg5 mi
4:00 pm32 °FMostly cloudy.7 mph93%30.36 "HgN/A
3:30 pm32 °FMostly cloudy.8 mph93%30.36 "HgN/A
3:00 pm32 °FLow clouds.9 mph93%30.39 "HgN/A
2:30 pm32 °FLow clouds.8 mph93%30.39 "HgN/A
2:00 pm32 °FMostly cloudy.9 mph93%30.39 "HgN/A
1:30 pm32 °FLow clouds.10 mph93%30.39 "HgN/A
1:00 pm32 °FMore clouds than sun.7 mph93%30.39 "HgN/A
12:30 pm32 °FMore clouds than sun.7 mph93%30.42 "HgN/A
12:00 pm32 °FPartly sunny.8 mph93%30.42 "HgN/A
11:30 am32 °FMore clouds than sun.9 mph100%30.42 "Hg4 mi
11:00 am32 °FMostly cloudy.12 mph100%30.45 "Hg4 mi
10:30 am32 °FMostly cloudy.10 mph100%30.45 "Hg4 mi
10:00 am32 °FMostly cloudy.10 mph100%30.45 "Hg5 mi
9:30 am32 °FMostly cloudy.8 mph100%30.45 "Hg5 mi
9:00 am34 °FMostly cloudy.9 mph93%30.45 "Hg5 mi
8:30 am34 °FLow clouds.7 mph93%30.45 "Hg5 mi
8:00 am34 °FLow clouds.6 mph100%30.45 "Hg4 mi
7:30 am34 °FFog.3 mph93%30.42 "Hg2 mi
7:00 am34 °FFog.5 mph93%30.45 "Hg1 mi
6:30 am34 °FFog.5 mph93%30.45 "Hg1 mi
6:00 am34 °FFog.5 mph93%30.45 "Hg1 mi
5:30 am34 °FFog.5 mph93%30.45 "Hg1 mi
5:00 am34 °FFog.6 mph100%30.45 "Hg1 mi
4:30 am34 °FFog.6 mph100%30.45 "Hg1 mi
4:00 am34 °FFog.6 mph100%30.45 "Hg1 mi
3:30 am34 °FFog.6 mph100%30.45 "Hg1 mi
3:00 am34 °FFog.6 mph100%30.48 "Hg0 mi
2:30 am34 °FFog.6 mph100%30.48 "Hg0 mi
2:00 am34 °FFog.6 mph100%30.48 "Hg0 mi
1:30 am34 °FFog.5 mph100%30.48 "Hg0 mi
1:00 am34 °FFog.5 mph100%30.48 "Hg0 mi
12:30 am34 °FFog.5 mph100%30.48 "Hg0 mi
12:00 am34 °FFog.5 mph100%30.48 "Hg0 mi
11:30 pm
Sat, Jan 21
34 °FFog.3 mph100%30.48 "Hg1 mi
11:00 pm34 °FFog.3 mph100%30.48 "Hg1 mi
10:30 pm34 °FFog.5 mph100%30.48 "Hg2 mi
10:00 pm34 °FFog.3 mph100%30.48 "Hg3 mi
9:30 pm34 °FFog.2 mph100%30.48 "Hg3 mi
9:00 pm34 °FFog.2 mph100%30.48 "Hg2 mi
8:30 pm34 °FFog.1 mph100%30.48 "Hg3 mi
8:00 pm34 °FFog.5 mph100%30.48 "Hg2 mi
7:30 pm34 °FFog.5 mph100%30.48 "Hg2 mi
7:00 pm36 °FFog.3 mph93%30.45 "Hg2 mi
6:30 pm36 °FFog.3 mph93%30.45 "Hg2 mi
6:00 pm36 °FFog.3 mph93%30.45 "Hg2 mi
5:30 pm36 °FFog.3 mph93%30.45 "Hg1 mi
5:00 pm36 °FFog.3 mph93%30.45 "Hg1 mi
Weather by CustomWeather, © 2017

See weather overviewHow to use our weather pages